Hourly Data Report for October 16, 2016

All times are specified in Local Standard Time (LST). Add 1 hour to adjust for Daylight Saving Time where and when it is observed.

OTTAWA INTL A
ONTARIO

45°19'00.000" N
75°40'00.000" W
114.90 m
6106001
71628
YOW

Download Data

Hourly Data (October 2016)
Hourly Data Report for October 16, 2016
Temp Definition
°C
Dew Point Temp Definition
°C
Rel Hum Definition
%
Wind Dir Definition
10's deg

Wind Spd Definition
km/h
Visibility Definition
km
Stn Press Definition
kPa
Hmdx Definition


Wind Chill Definition


Weather Definition


TIME
00:00 Legend Double Dagger 13.3 5.3 58 19 19 24.1 100.28     LegendNANA
01:00 Legend Double Dagger 13.8 6.2 60 19 26 24.1 100.24     Cloudy
02:00 Legend Double Dagger 13.8 6.9 63 20 18 24.1 100.19     LegendNANA
03:00 Legend Double Dagger 14.2 7.6 64 19 19 24.1 100.12     LegendNANA
04:00 Legend Double Dagger 14.0 8.0 67 19 18 24.1 100.05     Cloudy
05:00 Legend Double Dagger 13.1 9.2 77 19 13 24.1 100.01     LegendNANA
06:00 Legend Double Dagger 13.7 10.0 78 19 20 24.1 99.87     LegendNANA
07:00 Legend Double Dagger 14.8 10.9 77 20 18 19.3 99.90     Cloudy
08:00 Legend Double Dagger 15.6 11.6 77 20 17 19.3 99.88     LegendNANA
09:00 Legend Double Dagger 16.4 12.6 78 20 18 24.1 99.85     LegendNANA
10:00 Legend Double Dagger 15.3 14.0 92 19 16 6.4 99.80     Rain Showers,Fog
11:00 Legend Double Dagger 16.7 15.6 93 20 16 12.9 99.76     Rain Showers
12:00 Legend Double Dagger 17.7 15.9 89 21 22 19.3 99.70     LegendNANA
13:00 Legend Double Dagger 18.0 16.4 90 21 22 19.3 99.62     Cloudy
14:00 Legend Double Dagger 18.5 16.5 88 22 19 19.3 99.58     LegendNANA
15:00 Legend Double Dagger 18.5 16.3 87 22 21 19.3 99.62     LegendNANA
16:00 Legend Double Dagger 18.5 16.3 87 21 24 19.3 99.57     Cloudy
17:00 Legend Double Dagger 17.8 17.0 95 22 16 16.1 99.56     Rain Showers
18:00 Legend Double Dagger 17.5 16.7 95 27 12 24.1 99.64     LegendNANA
19:00 Legend Double Dagger 17.0 16.8 99 29 10 16.1 99.71     Mostly Cloudy
20:00 Legend Double Dagger 16.3 16.1 99 27 13 16.1 99.75     LegendNANA
21:00 Legend Double Dagger 15.5 15.4 99 20 7 0.4 99.83     Fog
22:00 Legend Double Dagger 14.6 14.6 100 20 7 0.6 99.90     Fog
23:00 Legend Double Dagger 14.8 14.8 100 20 6 6.4 99.91     Fog

Notes on Data Quality.

Legend

  • E = Estimated
  • M = Missing
  • NA = Not Available
  • ‡ = Partner data that is not subject to review by the National Climate Archives
Date modified: